{"data":{"norad_id":69912,"epoch":"2026-09-20T04:14:16.599264Z","epoch_age_seconds":45746,"freshness":"FRESH","line1":"1 69912U 26156AV  26263.17658101  .00000820  00000+0  88607-4 0  9997","line2":"2 69912  97.7472 162.2896 0000939 236.9721 123.1408 14.90954502 11156","mean_motion":14.90954502,"eccentricity":9.39e-5,"inclination_deg":97.7472,"raan_deg":162.2896,"arg_perigee_deg":236.9721,"mean_anomaly_deg":123.1408,"bstar":8.8607e-5,"rev_number":1115,"period_min":96.582424082583,"perigee_km":594.30320812311,"apogee_km":595.61275536069,"semimajor_km":6973.0949817419,"source":"CELESTRAK","updated_at":"2026-09-20T09:00:25.176466Z"}}